Starlink 31047

operational
NORAD ID: 58783 Int'l Des: 2024-011 Owner: SPXS Country: US Constellation: starlink
LEOCIRCULAR

关于 Starlink 31047

正在加载描述...

实时位置

正在加载3D地球...

即将过境

高度历史

Altitude vs Time

uPlot chart will show altitude changes over time

两行轨道根数

1 58783U 24011U 25258.26021892 -.00000361 00000-0 -43983-7 0 9997
2 58783 53.1593 92.9818 0001701 90.2423 269.8773 15.30189954 93633
Epoch: Sep 15, 2025 • Age: 15 hours

当前状态

高度 493.9 km
速度 7.62 km/s
星下点 -50.71°S, 18.61°E
发射日期 Jan 14, 2024
运行时间 1.6 years
类型 internet

技术详情

分类 Payload
质量 730.00 kg
干质量 700.00 kg
总质量 730.00 kg
长度 0.30 m
直径 4.10 m
跨度 29.00 m
形状 Box + pan
制造商 SPXS
平台类型 Starlink V2M
阶段状态 In Orbit
所有者/国家 SPXS/US

大型星座

Loading constellations...